Regional Weather Roundup
Issued by NWS

Home | Current Version | Previous Version | Text Only | Print | Product List | Glossary On
Versions: 1 2 3 4 5 6 7 8 9 10 11 12 13 14 15 16 17 18 19 20 21 22 23 24 25 26 27 28 29 30 31 32 33 34 35 36 37 38 39 40 41 42 43 44 45 46 47 48 49 50
000
ASUS43 KLMK 211510
RWRKY
KENTUCKY REGIONAL WEATHER ROUNDUP
NATIONAL WEATHER SERVICE LOUISVILLE KY
1000 AM EST TUE NOV 21 2017

NOTE "FAIR" INDICATES FEW OR NO CLOUDS BELOW 12,000 FEET
WITH NO SIGNIFICANT WEATHER AND/OR OBSTRUCTIONS TO VISIBILITY.

KYZ001>023-026-027-061>063-070>075-211600-
WESTERN AND SOUTH CENTRAL KENTUCKY

CITY           SKY/WX    TMP DP  RH WIND       PRES   REMARKS
PADUCAH        SUNNY     47  29  49 SW10G18   30.00R
HENDERSON      SUNNY     46  33  60 SW15      29.98R
OWENSBORO      SUNNY     47  32  56 S14       30.00S
HOPKINSVILLE   SUNNY     47  29  50 S14       30.04F
BOWLING GREEN  SUNNY     48  34  58 SW12      30.07S
GLASGOW        SUNNY     48  33  57 SW13G20   30.07S
$$

KYZ024-025-028>034-038-045-046-053-211600-
NORTH CENTRAL KENTUCKY

CITY           SKY/WX    TMP DP  RH WIND       PRES   REMARKS
LOUISVILLE/SDF MOSUNNY   49  29  46 S16       30.00F
LOUISVILLE/LOU SUNNY     47  31  53 S9        30.01F
FORT KNOX      SUNNY     47  30  50 S13G20    29.99F
$$

KYZ035>037-039>044-047>052-055>060-089>105-211600-
NORTHEAST KENTUCKY

CITY           SKY/WX    TMP DP  RH WIND       PRES   REMARKS
LEXINGTON      PTSUNNY   47  35  63 SW13      30.04S
COVINGTON      PTSUNNY   44  30  57 SW14      29.96S
FRANKFORT      MOSUNNY   48  30  49 S17G26    30.01S
$$

KYZ054-064>069-076>088-106>120-211600-
SOUTHEAST KENTUCKY

CITY           SKY/WX    TMP DP  RH WIND       PRES   REMARKS
JACKSON        SUNNY     50  34  54 SW5       30.06F
LONDON         SUNNY     48  34  58 SW3       30.07S
SOMERSET       PTSUNNY   48  36  61 S6        30.08S
MIDDLESBORO    SUNNY     48  31  52 S8        30.12S
MONTICELLO     MOSUNNY   54  37  52 S9G23     30.08F
$$





USA.gov is the U.S. government's official web portal to all federal, state and local government web resources and services.